Temp
38 38 37 37 38 37 37 36 32 30 32 38 36 40 39 38 38 37 36 37 37 38 37 37 37 38 38 38 39 39 40 40 40 40 41 42 42 42
37 37 36 37 37 37 36 35 34 31 28 35 36 37 37 38 38 36 36 36 36 36 36 36 36 36 36 36 36 36 36 37 37 38 38 39 39 40
37 36 35 36 35 35 35 35 34 33 28 31 35 36 35 35 35 35 35 34 34 35 35 35 34 34 34 34 34 34 34 34 34 34 35 35 36 38
35 35 33 36 34 35 34 33 33 33 30 27 31 32 33 34 33 31 32 33 31 32 33 33 32 32 31 31 31 31 31 31 31 31 32 33 34 35
34 33 33 33 33 33 32 32 32 33 32 29 29 32 32 32 30 30 29 28 29 30 30 30 30 29 28 28 29 29 28 28 29 29 30 31 31 32
33 33 33 32 31 30 30 30 31 30 30 29 28 27 28 29 27 23 21 24 23 26 27 27 26 25 26 26 26 26 26 27 27 28 28 29 29 30
33 32 32 29 29 30 29 28 28 28 28 26 24 24 23 23 20 21 19 19 20 21 20 19 19 20 20 23 23 24 25 25 26 27 27 27 28 28
31 32 32 31 31 30 31 30 30 26 24 23 21 20 21 20 20 18 16 13 9 20 15 13 18 15 18 19 22 23 24 25 25 26 26 26 26 27
31 31 31 31 30 29 30 31 28 28 27 24 20 19 18 19 18 15 13 12 10 14 13 9 14 12 16 19 20 22 23 24 24 25 25 25 25 25
31 31 30 29 29 28 28 27 26 26 26 25 22 21 20 20 18 15 13 11 11 12 14 4 12 10 13 14 19 21 22 23 23 24 24 24 24 24
31 30 29 28 29 30 25 23 23 23 25 24 24 22 21 20 19 14 7 5 3 6 11 9 9 8 10 9 13 19 20 20 21 22 22 22 22 21
30 30 29 27 28 27 23 20 17 19 19 16 15 15 17 16 17 13 10 3 3 1 10 5 5 6 0 8 10 11 13 17 18 20 19 20 20 15
27 27 28 27 26 25 24 19 19 21 14 12 12 12 13 13 12 12 11 7 2 1 9 9 3 2 1 1 6 9 10 11 11 12 16 17 17 18
26 27 25 24 23 22 20 21 20 15 11 9 8 8 9 8 9 8 8 7 8 6 8 7 3 3 1 0 -0 7 8 10 10 8 10 14 16 17
25 23 21 21 21 19 18 17 13 10 8 5 5 6 7 8 7 6 7 8 8 8 9 8 6 6 4 2 1 4 5 6 8 9 11 11 10 11
22 20 20 19 19 18 14 14 11 9 5 3 4 6 6 5 4 6 4 5 3 3 8 9 9 7 4 4 4 2 4 3 10 10 10 10 11 12
15 16 15 14 12 12 11 9 9 7 5 5 3 2 2 3 3 5 3 2 -0 0 2 6 8 7 6 4 1 4 6 7 8 8 8 8 11 12
13 11 11 11 9 8 7 6 6 3 4 3 0 0 0 0 0 1 1 0 -1 -0 0 2 2 1 1 4 12 5 6 5 7 8 10 7 7 12
9 10 9 8 7 6 5 4 2 3 -1 -1 -0 -0 -0 -1 -2 -2 -1 -1 -2 -1 -1 0 -2 -2 -5 -6 3 12 3 5 8 7 9 8 7 10
8 6 5 5 4 3 3 2 1 0 -0 -1 -2 -2 -3 -4 -4 -4 -3 -4 -5 -4 -5 -2 -1 -1 -4 -6 -5 1 14 9 7 6 7 10 12 18
5 5 4 3 2 1 1 -0 -1 -2 -3 -5 -7 -7 -6 -5 -6 -5 -5 -5 -6 -6 -7 -5 -1 3 1 2 -2 1 6 15 14 9 9 7 6 8
4 3 3 2 1 -0 -1 -2 -3 -4 -4 -4 -4 -4 -4 -5 -6 -6 -6 -7 -7 -7 -6 -3 -1 -0 -1 -2 -3 -0 3 7 13 16 17 15 9 4
2 2 1 1 -0 -1 -3 -3 -4 -4 -4 -5 -5 -6 -6 -7 -7 -6 -7 -7 -7 -8 -7 -6 -4 -2 -2 -2 -0 1 2 4 5 5 8 17 17 17
MSLP
1029.37 1029.61 1030.00 1030.04 1030.05 1030.03 1030.20 1030.28 1030.10 1029.29 1028.73 1028.27 1028.65 1028.83 1029.02 1029.16 1028.77 1028.65 1028.53 1028.05 1028.01 1027.41 1026.76 1026.54 1026.20 1025.53 1025.00 1024.46 1023.70 1023.05 1022.46 1021.83 1021.25 1020.36 1019.60 1018.79 1018.21 1017.57
1029.98 1030.12 1030.19 1030.37 1030.51 1030.56 1030.71 1030.70 1030.69 1030.42 1029.74 1029.25 1029.16 1029.08 1029.07 1029.12 1029.04 1028.94 1028.56 1028.26 1027.74 1026.96 1027.15 1026.62 1025.93 1025.43 1024.92 1024.34 1023.69 1023.26 1022.68 1021.80 1021.04 1020.26 1019.52 1018.88 1018.26 1017.45
1030.54 1030.61 1030.79 1030.94 1030.97 1031.08 1031.01 1031.02 1031.03 1030.72 1030.32 1029.97 1029.68 1029.10 1028.99 1028.92 1028.78 1028.67 1028.68 1028.31 1027.98 1027.64 1026.92 1026.52 1025.98 1025.42 1024.86 1024.33 1023.80 1023.21 1022.49 1021.75 1021.07 1020.33 1019.65 1018.90 1017.96 1016.99
1030.72 1030.85 1031.09 1031.16 1031.30 1031.23 1031.26 1031.25 1031.16 1031.14 1030.95 1030.12 1029.96 1029.33 1028.96 1028.78 1028.60 1028.63 1028.78 1028.51 1027.92 1027.76 1027.16 1026.53 1025.98 1025.35 1024.92 1024.44 1023.80 1023.01 1022.27 1021.70 1021.06 1020.28 1019.32 1018.37 1017.44 1016.59
1030.90 1031.07 1031.35 1031.54 1031.54 1031.43 1031.43 1031.36 1031.16 1031.09 1030.84 1030.22 1029.74 1029.53 1029.20 1029.15 1029.22 1028.67 1028.53 1028.59 1028.24 1027.60 1027.27 1026.57 1025.69 1025.50 1025.20 1024.46 1023.71 1022.93 1022.33 1021.62 1020.72 1019.72 1018.69 1017.76 1016.94 1015.98
1031.40 1031.44 1031.57 1031.91 1031.89 1031.78 1031.85 1031.73 1031.52 1031.28 1030.65 1030.35 1030.13 1029.67 1029.59 1029.15 1029.63 1029.07 1028.65 1028.78 1028.08 1027.59 1027.08 1026.39 1026.10 1025.78 1025.11 1024.39 1023.59 1022.95 1022.31 1021.23 1020.10 1019.08 1018.01 1016.96 1016.08 1015.22
1031.57 1031.76 1031.82 1032.35 1032.39 1032.28 1032.31 1032.19 1031.67 1031.39 1030.76 1030.85 1030.52 1030.43 1029.89 1029.65 1029.87 1029.68 1029.25 1028.57 1028.10 1027.63 1026.97 1026.94 1026.38 1025.60 1025.11 1024.17 1023.45 1022.76 1021.62 1020.57 1019.30 1018.14 1017.05 1016.00 1015.14 1014.38
1031.43 1031.51 1031.61 1031.92 1031.86 1032.45 1032.20 1031.94 1031.46 1031.11 1031.25 1031.30 1031.25 1030.85 1030.52 1030.55 1030.38 1030.14 1029.51 1028.76 1027.62 1027.60 1027.26 1026.63 1026.26 1025.63 1024.84 1024.11 1023.09 1022.20 1021.01 1019.79 1018.55 1017.31 1016.15 1015.08 1014.19 1013.37
1031.23 1031.67 1031.58 1031.78 1032.12 1032.48 1032.17 1031.14 1031.42 1031.57 1031.64 1031.76 1031.70 1031.55 1031.09 1030.94 1030.68 1030.18 1029.84 1029.28 1028.51 1027.76 1027.52 1026.50 1026.29 1025.33 1024.60 1023.57 1022.69 1021.62 1020.42 1019.01 1017.81 1016.43 1015.29 1014.23 1013.26 1012.34
1031.78 1031.76 1031.79 1031.98 1031.86 1032.13 1031.71 1031.38 1031.55 1031.63 1031.79 1031.90 1032.09 1031.61 1031.25 1030.90 1030.79 1030.42 1029.87 1029.27 1028.61 1028.12 1027.81 1026.75 1025.85 1025.11 1024.22 1023.07 1021.76 1020.99 1019.56 1018.34 1016.96 1015.52 1014.41 1013.33 1012.22 1011.25
1031.77 1031.87 1032.12 1032.13 1031.95 1032.02 1031.41 1031.75 1031.83 1031.83 1031.83 1031.87 1031.70 1031.46 1031.14 1030.84 1030.63 1030.31 1030.10 1029.64 1028.66 1028.06 1027.58 1026.32 1025.66 1024.85 1023.94 1022.13 1020.64 1019.98 1019.05 1017.56 1015.83 1014.67 1013.57 1012.40 1011.45 1010.46
1031.53 1031.57 1031.60 1032.31 1032.36 1031.62 1031.75 1032.07 1032.07 1031.79 1031.81 1031.82 1031.85 1031.58 1031.22 1030.87 1030.45 1030.45 1030.14 1029.80 1029.33 1027.98 1027.04 1026.74 1025.63 1025.05 1023.59 1021.65 1019.92 1019.37 1018.18 1016.66 1015.34 1013.92 1013.07 1011.78 1010.79 1010.04
1031.57 1031.50 1031.65 1032.28 1032.22 1031.95 1032.09 1032.46 1032.00 1031.65 1032.22 1032.01 1031.69 1031.28 1030.85 1030.56 1030.39 1030.25 1030.20 1030.01 1029.46 1028.65 1027.20 1026.98 1025.77 1025.04 1024.35 1021.90 1019.32 1018.42 1017.88 1015.38 1014.57 1012.91 1012.07 1011.35 1010.29 1009.17
1031.75 1031.80 1032.14 1032.40 1032.51 1032.47 1032.54 1032.27 1032.09 1032.50 1032.38 1032.04 1031.71 1031.20 1030.78 1030.52 1030.32 1030.24 1030.00 1029.62 1029.14 1028.37 1027.02 1026.71 1025.81 1024.78 1023.43 1021.50 1019.74 1016.98 1016.62 1014.83 1013.62 1012.01 1011.14 1009.71 1008.69 1007.69
1032.33 1032.56 1032.75 1032.81 1032.78 1032.72 1032.73 1032.54 1032.81 1032.76 1032.56 1032.29 1031.87 1031.36 1031.01 1030.67 1030.32 1029.78 1029.06 1028.45 1027.88 1027.14 1026.32 1025.65 1025.05 1023.86 1022.83 1021.03 1019.09 1017.10 1015.29 1013.66 1012.52 1010.64 1009.17 1008.14 1007.12 1006.17
1032.74 1032.94 1032.97 1032.89 1032.79 1032.69 1032.86 1032.72 1032.91 1032.98 1032.92 1032.51 1031.96 1031.42 1030.94 1030.53 1029.95 1029.36 1028.67 1028.01 1027.35 1025.97 1025.24 1024.54 1023.81 1023.06 1021.64 1020.36 1018.64 1016.57 1014.76 1013.11 1010.53 1009.27 1008.12 1006.50 1005.37 1004.35
1033.35 1033.09 1033.06 1032.94 1032.82 1032.72 1032.79 1032.85 1032.85 1032.80 1032.72 1032.29 1031.85 1031.40 1030.86 1030.34 1029.69 1029.17 1028.62 1027.99 1027.41 1026.13 1024.54 1023.30 1022.56 1022.02 1020.94 1019.87 1017.73 1015.72 1013.42 1011.63 1009.87 1008.19 1006.79 1004.03 1003.07 1002.34
1033.52 1033.41 1033.27 1033.07 1033.05 1032.99 1032.93 1032.86 1032.84 1032.75 1032.56 1032.31 1032.02 1031.49 1030.85 1030.28 1029.68 1029.12 1028.62 1027.86 1026.99 1025.82 1024.62 1023.46 1022.29 1020.93 1019.20 1017.96 1017.03 1014.93 1013.16 1011.28 1009.31 1007.17 1005.59 1003.73 1000.04 1000.07
1033.70 1033.52 1033.43 1033.35 1033.25 1033.14 1033.07 1033.01 1032.92 1032.83 1032.77 1032.37 1031.82 1031.27 1030.76 1030.17 1029.72 1028.99 1028.27 1027.52 1026.50 1025.62 1024.49 1023.54 1022.50 1021.25 1018.93 1016.36 1014.16 1014.77 1013.04 1010.22 1008.00 1006.03 1004.60 1002.87 1000.24 997.74
1033.84 1033.81 1033.75 1033.53 1033.32 1033.20 1033.11 1033.02 1032.87 1032.69 1032.46 1032.07 1031.57 1031.09 1030.60 1030.13 1029.51 1028.81 1028.12 1027.35 1026.48 1025.41 1024.20 1023.03 1021.91 1020.86 1019.77 1017.59 1014.40 1011.58 1011.34 1009.22 1007.33 1004.85 1002.57 1000.73 999.35 996.84
1034.06 1033.93 1033.73 1033.50 1033.29 1033.19 1033.07 1032.91 1032.70 1032.40 1032.12 1031.85 1031.48 1030.95 1030.36 1029.84 1029.13 1028.53 1027.79 1027.10 1026.35 1025.43 1024.14 1022.55 1021.13 1020.19 1018.90 1017.01 1014.39 1011.20 1008.72 1008.03 1006.79 1004.54 1001.67 999.39 996.76 994.52
1034.12 1033.89 1033.62 1033.36 1033.19 1033.07 1032.86 1032.57 1032.25 1031.87 1031.45 1031.07 1030.62 1030.21 1029.73 1029.35 1028.75 1028.04 1027.33 1026.60 1025.83 1025.06 1023.71 1022.16 1020.66 1019.41 1018.07 1016.61 1014.07 1011.14 1008.13 1005.43 1003.87 1002.35 1000.76 999.51 996.45 992.96
1034.12 1033.85 1033.52 1033.15 1032.85 1032.61 1032.39 1032.07 1031.68 1031.17 1030.67 1030.30 1029.96 1029.52 1029.21 1028.84 1028.27 1027.47 1026.74 1026.09 1025.41 1024.46 1023.27 1021.74 1020.37 1019.07 1017.51 1016.01 1013.79 1011.07 1008.69 1006.02 1003.27 1000.16 996.95 995.77 994.28 992.25
Wind_Speed
7 7 5 5 4 4 4 4 3 3 5 2 3 6 6 6 9 9 10 18 23 22 22 23 26 28 29 28 27 27 30 30 32 31 31 30 30 30
5 6 5 4 4 3 3 3 2 3 4 6 7 9 8 8 10 10 11 18 20 20 24 26 27 29 29 27 27 30 32 31 31 31 30 30 31 31
5 6 6 5 3 3 3 2 3 4 6 7 7 8 10 10 9 9 9 10 9 21 25 26 28 29 26 27 31 32 31 31 31 31 30 31 32 32
6 5 4 3 3 3 3 5 4 5 6 10 9 8 9 9 9 10 9 8 10 17 25 26 27 22 27 32 32 31 30 30 30 31 32 33 34 34
4 4 4 3 3 4 4 5 5 5 6 8 8 7 8 8 9 9 9 11 9 19 23 26 20 24 30 29 29 29 28 30 32 34 35 36 36 36
4 3 4 4 4 6 6 7 6 7 7 8 8 8 8 8 8 10 9 9 10 10 17 18 22 27 26 28 26 26 30 31 35 36 36 36 35 35
3 3 3 4 2 5 5 7 8 7 7 8 8 9 8 8 10 9 10 10 9 11 10 10 11 10 12 17 22 29 32 33 34 35 34 35 36 36
2 2 2 2 2 9 10 11 11 8 8 8 8 9 10 10 8 10 10 11 11 5 11 11 10 10 10 11 27 32 32 32 32 35 37 37 37 37
2 3 3 2 4 6 11 13 6 8 9 9 10 10 11 11 11 11 11 10 11 10 11 11 10 10 11 13 29 32 31 32 36 37 36 36 36 36
3 3 4 5 5 7 10 4 5 7 9 6 9 10 10 11 10 10 11 11 10 9 8 11 9 11 12 14 30 30 32 35 37 36 35 36 37 36
3 4 5 6 9 13 4 5 7 8 8 12 16 17 16 16 12 7 7 9 10 9 10 9 10 13 12 15 13 27 33 34 37 37 37 37 36 35
4 4 2 5 11 8 7 7 7 9 9 8 8 9 10 10 13 7 7 8 8 8 5 8 11 9 8 11 14 14 13 29 37 37 38 36 35 16
5 4 3 5 6 10 10 5 9 10 9 7 7 6 6 6 5 6 7 7 8 9 13 10 9 12 9 13 15 12 15 17 17 21 29 33 34 30
6 4 3 5 6 8 7 12 12 9 5 5 6 7 6 6 6 7 9 9 9 13 16 13 10 12 13 15 17 17 15 17 15 19 15 24 31 32
4 5 4 5 7 7 9 10 6 4 5 6 6 6 6 7 9 9 9 10 11 12 11 14 11 13 12 15 17 18 21 19 17 16 16 16 16 15
4 1 5 6 7 7 4 5 4 4 5 6 7 7 7 7 8 7 9 9 10 11 12 12 13 13 13 14 16 18 18 18 19 17 17 18 16 14
3 2 4 3 4 4 4 3 4 4 5 6 6 7 7 7 8 7 8 9 10 12 13 13 14 14 13 17 16 17 18 19 18 19 20 20 16 14
3 3 4 4 4 5 5 5 5 5 6 6 7 7 8 8 8 8 8 9 10 11 13 13 14 15 14 12 20 16 17 18 19 20 20 19 22 15
2 4 4 4 5 5 5 5 6 6 4 6 7 7 7 8 8 8 9 9 10 11 12 12 13 13 17 20 17 22 17 18 18 19 17 18 21 20
2 3 4 4 5 5 5 5 6 6 6 6 7 7 7 7 8 9 9 10 10 11 13 12 12 12 14 19 23 21 32 19 18 20 21 18 20 36
3 4 4 5 5 5 5 5 6 7 6 7 7 7 7 7 9 9 9 12 13 10 13 14 14 22 15 15 16 19 18 32 29 23 22 21 20 18
4 5 5 5 5 5 5 6 6 7 7 6 7 7 7 7 9 9 9 10 10 10 12 13 15 13 13 14 18 24 21 22 29 37 37 32 22 24
5 6 6 6 5 6 5 6 7 8 7 7 7 7 7 7 8 9 9 9 10 11 12 14 13 12 14 14 19 19 27 26 22 26 27 43 44 42
Wind_Direction
69 65 65 59 48 50 43 29 4 320 321 28 358 353 355 343 332 343 327 339 329 333 333 331 330 332 331 329 327 330 324 324 317 317 313 313 312 311
74 78 71 60 56 48 32 20 346 317 291 355 332 332 340 327 329 334 331 328 327 327 325 327 327 327 328 326 326 326 321 318 317 316 314 314 310 305
78 73 66 42 41 27 8 331 317 319 301 308 313 323 323 323 329 330 326 321 317 322 324 322 323 324 323 327 322 320 319 318 318 317 314 309 306 303
72 72 62 38 25 10 347 339 319 321 312 306 310 318 315 327 327 330 322 318 330 321 320 322 319 317 327 322 320 318 319 321 317 314 311 308 306 305
75 67 53 14 2 0 342 328 324 316 304 299 303 310 325 330 326 319 326 322 321 319 320 319 322 328 322 317 319 317 319 317 314 311 309 308 304 300
65 50 38 9 357 359 344 328 325 313 307 310 318 326 329 331 320 328 321 313 317 322 313 331 328 322 319 319 318 316 317 310 310 307 303 302 302 299
68 34 21 25 339 341 328 323 322 312 320 328 325 324 319 332 330 329 315 314 320 312 324 326 314 314 315 311 314 312 316 314 310 310 306 304 303 300
21 359 300 247 276 322 318 304 289 317 330 326 320 314 328 330 326 324 319 320 317 323 326 312 313 315 302 311 310 319 316 316 309 309 307 304 304 301
357 316 321 330 305 318 311 314 59 357 333 327 320 324 322 326 323 322 317 311 307 316 313 311 317 299 311 305 308 313 314 313 314 311 309 305 303 300
323 312 309 307 318 318 310 354 349 334 328 331 314 316 315 318 320 314 315 307 301 304 320 301 305 309 310 299 302 308 311 313 308 309 312 307 302 301
313 310 321 322 333 320 40 352 337 323 337 314 315 315 315 318 316 324 314 317 311 315 310 295 310 306 306 298 300 309 315 307 306 309 309 313 311 305
308 296 270 283 312 6 14 354 322 319 331 314 312 309 312 311 321 315 311 305 305 305 301 315 308 321 305 297 307 303 303 302 307 307 312 310 314 310
322 330 335 338 1 352 343 316 313 330 318 306 306 307 308 311 310 316 314 307 300 282 283 311 302 303 287 302 298 302 302 299 306 299 306 308 305 303
317 323 43 10 346 325 329 322 330 331 309 310 309 306 313 313 314 314 296 274 264 271 287 288 277 288 290 292 294 302 306 296 303 300 295 293 297 298
6 24 11 331 320 325 327 323 342 322 315 309 305 305 311 308 303 291 288 287 281 278 280 281 274 286 279 285 291 298 302 302 296 292 302 299 297 294
8 347 305 309 302 300 284 324 322 316 306 293 290 300 301 299 297 301 303 307 304 299 291 286 289 291 288 288 292 294 295 294 300 304 301 296 290 284
319 313 309 306 310 314 313 309 304 304 301 295 301 298 295 295 295 303 300 303 292 299 303 306 306 299 290 289 290 291 296 302 301 304 304 301 298 294
301 294 303 313 309 311 309 308 309 304 302 313 302 292 292 296 298 301 295 290 295 296 298 303 308 308 299 280 283 299 300 298 300 300 307 302 302 303
320 314 312 315 307 304 303 304 303 302 304 280 284 289 289 291 298 293 293 292 295 297 297 303 303 303 308 306 309 306 301 296 300 305 306 303 298 304
290 306 302 295 294 294 297 296 296 294 288 287 286 288 287 286 289 286 288 292 296 300 300 300 303 305 308 303 306 305 303 306 310 308 308 301 294 298
310 300 296 292 290 289 287 284 279 279 279 283 278 274 277 276 280 282 285 288 290 293 297 298 300 303 294 295 297 303 305 309 312 310 311 310 310 307
294 288 285 280 279 278 277 276 276 273 272 271 270 273 278 278 279 282 284 290 292 290 288 292 303 305 306 305 302 307 310 313 315 315 317 318 321 318
284 284 285 280 274 270 266 267 264 267 267 268 267 266 270 274 275 277 280 280 285 291 293 300 305 307 302 304 306 307 315 319 322 326 323 329 328 326